Home > Weather > Debrecen > Past weeks

Flag for Hungary Past Weather in Debrecen, Hungary — Yesterday and Last 2 Weeks

Now
77 °F

Sunny.


Feels Like: 79 °F
Forecast: 66 / 89 °F
Wind: 2 mph from Northwest

Location: Debrecen Airport

Current Time: Jul 27, 2016 at 9:14:19 PM

Latest Report: Jul 27, 2016 at 8:15 PM


Visibility: 10 mi

Pressure: 29.98 "Hg

Humidity: 69%

Dew Point: 66 °F

Location of DebrecenLocation

Past Weather in Debrecen — Graph

°F

Debrecen Temperature Yesterday

Maximum temperature yesterday: 84 °F (at 1:45 PM)
Minimum temperature yesterday: 64 °F (at 5:15 AM)
Average temperature yesterday: 74 °F

High & Low Weather Summary for the Past Weeks

 TemperatureHumidityPressure
High91 °F (Jul 13, 4:15 PM)94% (Jul 14, 5:15 AM)30.09 "Hg (Jul 14, 5:15 AM)
Low54 °F (Jul 15, 5:15 AM)35% (Jul 24, 2:15 PM)29.68 "Hg (Jul 14, 6:45 AM)
Average72 °F69%29.97 "Hg
* Reported Jul 12 7:15 PM — Jul 27 7:15 PM, Debrecen, Weather by CustomWeather, © 2016

Note: Actual official high and low records may vary slightly from our data, if they occured in-between our weather recording intervals... More about our weather records

Advertising

Debrecen Weather History for the Previous 24 Hours

Scroll right to see more
 ConditionsComfort  
Time TempWeatherWind HumidityBarometerVisibility
7:15 PM
Wed, Jul 27
77 °FPartly sunny.6 mph69%29.98 "HgN/A
6:45 PM77 °FScattered clouds.10 mph69%29.98 "HgN/A
6:15 PM81 °FScattered clouds.5 mph62%29.95 "HgN/A
5:45 PM82 °FScattered clouds.5 mph58%29.95 "HgN/A
5:15 PM84 °FPassing clouds.5 mph51%29.95 "HgN/A
4:15 PM84 °FPassing clouds.3 mph51%29.98 "HgN/A
3:45 PM84 °FScattered clouds.5 mph55%29.98 "HgN/A
3:15 PM84 °FScattered clouds.6 mph51%29.98 "HgN/A
2:45 PM84 °FScattered clouds.5 mph55%29.98 "HgN/A
2:15 PM82 °FScattered clouds.5 mph58%30.01 "HgN/A
1:15 PM82 °FPassing clouds.2 mph62%30.01 "HgN/A
12:45 PM81 °FPassing clouds.2 mph62%30.01 "HgN/A
12:15 PM82 °FPassing clouds.2 mph62%30.04 "HgN/A
11:45 AM81 °FPassing clouds.2 mph58%30.04 "HgN/A
11:15 AM79 °FPassing clouds.3 mph65%30.04 "HgN/A
10:45 AM79 °FPassing clouds.3 mph65%30.04 "HgN/A
10:15 AM77 °FPassing clouds.3 mph69%30.04 "HgN/A
9:45 AM77 °FSunny.2 mph69%30.04 "Hg10 mi
9:15 AM75 °FSunny.2 mph74%30.04 "Hg10 mi
8:45 AM73 °FSunny.2 mph78%30.04 "Hg10 mi
8:15 AM70 °FSunny.5 mph83%30.04 "Hg10 mi
7:45 AM70 °FSunny.5 mph83%30.04 "Hg10 mi
7:15 AM68 °FPassing clouds.3 mph88%30.04 "Hg5 mi
6:45 AM66 °FPassing clouds.No wind88%30.04 "Hg5 mi
6:15 AM64 °FPassing clouds.6 mph94%30.01 "Hg4 mi
5:45 AM64 °FPassing clouds.5 mph94%30.01 "Hg4 mi
5:15 AM64 °FPassing clouds.3 mph94%30.01 "Hg4 mi
11:45 PM
Tue, Jul 26
68 °FClear.3 mph94%30.04 "Hg10 mi
11:15 PM68 °FClear.No wind94%30.01 "Hg10 mi
10:45 PM68 °FClear.2 mph94%30.04 "Hg10 mi
10:15 PM68 °FClear.2 mph94%30.04 "Hg10 mi
9:45 PM70 °FClear.2 mph88%30.01 "Hg10 mi
9:15 PM70 °FPartly cloudy.3 mph88%30.04 "HgN/A
Weather by CustomWeather, © 2016

See weather overviewHow to use our weather pages